Flag for Mauritania Weather past 2 weeks in Nouadhibou, Mauritania

Now
66 °F

Clear.


Feels Like: 66 °F
Forecast: 65 / 75 °F
Wind: 18 mph from North

Location: Nouadhibou Airport


UV Index: 10 (Very high)

Visibility: 5 mi


Pressure: 29.95 "Hg

Humidity: 78%

Dew point: 59 °F

Location of NouadhibouLocation

Historic Weather in Nouadhibou

°F

Nouadhibou temperature yesterday

Maximum temperature yesterday: 84 °F (at 2:00 PM)
Minimum temperature yesterday: 66 °F (at 4:00 AM)
Average temperature yesterday: 71 °F

Past Weeks' High & Low Weather Summary

 TemperatureHumidityPressure
High95 °F (Apr 19, 1:00 PM)100% (Apr 10, 2:56 AM)30.04 "Hg (Apr 10, 2:56 AM)
Low57 °F (Apr 6, 7:00 AM)22% (Apr 19, 1:00 PM)29.86 "Hg (Apr 11, 4:00 PM)
Average68 °F74%29.94 "Hg
* Reported Apr 6 2:00 AM — Apr 21 2:00 AM, Nouadhibou, Weather by CustomWeather, © 2014

Note: Actual official high and low records may vary slightly from our data, if they occured in-between our weather recording intervals... More about our weather records

Advertising

Historic Weather Conditions — Data for Previous 24 hours

 ConditionsComfort  
Time TempWeatherWind HumidityBarometerVisibility
2:00 AM
Apr 21
66 °FClear.17 mph78%29.98 "Hg5 mi
1:00 AM66 °FClear.17 mph78%29.98 "Hg5 mi
12:00 AM66 °FClear.20 mph83%30.01 "Hg5 mi
11:00 PM
Apr 20
66 °FClear.17 mph83%30.01 "Hg5 mi
10:00 PM68 °FClear.16 mph78%29.98 "Hg5 mi
9:00 PM68 °FSandstorm.17 mph69%29.95 "Hg4 mi
8:00 PM70 °FSandstorm.14 mph69%29.95 "Hg4 mi
7:00 PM70 °FSandstorm.17 mph69%29.92 "Hg4 mi
6:00 PM72 °FSandstorm.18 mph65%29.92 "Hg4 mi
5:00 PM75 °FSandstorm.22 mph57%29.92 "Hg4 mi
4:00 PM79 °FClear.17 mph51%29.92 "Hg4 mi
2:00 PM84 °FClear.23 mph37%29.95 "Hg4 mi
1:00 PM81 °FClear.23 mph45%29.98 "Hg5 mi
12:00 PM79 °FClear.23 mph51%30.01 "Hg5 mi
11:00 AM75 °FClear.23 mph61%30.01 "Hg5 mi
10:00 AM73 °FClear.25 mph65%30.01 "Hg5 mi
9:00 AM70 °FClear.25 mph69%30.01 "Hg5 mi
8:00 AM66 °FClear.20 mph78%29.98 "Hg5 mi
7:00 AM66 °FScattered clouds.17 mph73%29.98 "Hg5 mi
6:00 AM66 °FPassing clouds.17 mph73%29.95 "Hg5 mi
5:00 AM66 °FPassing clouds.16 mph73%29.95 "Hg5 mi
4:00 AM66 °FPassing clouds.17 mph73%29.95 "Hg5 mi
3:00 AM68 °FPassing clouds.15 mph64%29.95 "Hg5 mi
Weather by CustomWeather, © 2014

See weather overview